| time (UTC) | temp C | wind direction | speed KPH | gust KPH | rain 1hr cm | rain 24hr cm | rain mn cm | humidity % | barometer mb |
| 20260904091008 | 18 | 262 | 1.6 | 1.6 | 0.00 | 0.00 | 0.00 | 74 | 1009.9 |
| 20260904090503 | 18 | 250 | 6.4 | 8.0 | 0.00 | 0.00 | 0.00 | 73 | 1010.2 |
| 20260904090003 | 18 | 256 | 6.4 | 8.0 | 0.00 | 0.00 | 0.00 | 73 | 1010.0 |
| 20260904085458 | 18 | 281 | 6.4 | 8.0 | 0.00 | 0.00 | 0.00 | 73 | 1010.0 |
| 20260904084953 | 18 | 243 | 1.6 | 3.2 | 0.00 | 0.00 | 0.00 | 73 | 1010.2 |
| 20260904084449 | 18 | 239 | 4.8 | 6.4 | 0.00 | 0.00 | 0.00 | 73 | 1010.2 |
| 20260904083944 | 18 | 258 | 3.2 | 3.2 | 0.00 | 0.00 | 0.00 | 72 | 1010.0 |
| 20260904083441 | 18 | 227 | 3.2 | 3.2 | 0.00 | 0.00 | 0.00 | 72 | 1010.2 |
| 20260904082936 | 18 | 235 | 8.0 | 9.7 | 0.00 | 0.00 | 0.00 | 72 | 1010.1 |
| 20260904082431 | 18 | 240 | 4.8 | 9.7 | 0.00 | 0.00 | 0.00 | 71 | 1010.2 |
| 20260904081926 | 18 | 277 | 3.2 | 3.2 | 0.00 | 0.00 | 0.00 | 71 | 1010.2 |
| 20260904081422 | 18 | 275 | 3.2 | 3.2 | 0.00 | 0.00 | 0.00 | 71 | 1010.0 |
| 20260904080918 | 18 | 266 | 1.6 | 1.6 | 0.00 | 0.00 | 0.00 | 70 | 1010.1 |
| 20260904080413 | 19 | 251 | 1.6 | 3.2 | 0.00 | 0.00 | 0.00 | 70 | 1010.2 |
| 20260904075909 | 19 | 246 | 3.2 | 6.4 | 0.00 | 0.00 | 0.00 | 70 | 1010.0 |
| 20260904075404 | 19 | 243 | 4.8 | 6.4 | 0.00 | 0.00 | 0.00 | 70 | 1010.0 |
| 20260904074903 | 19 | 246 | 1.6 | 3.2 | 0.00 | 0.00 | 0.00 | 69 | 1010.1 |
| 20260904074358 | 19 | 255 | 4.8 | 6.4 | 0.00 | 0.00 | 0.00 | 70 | 1010.0 |
| 20260904073854 | 19 | 238 | 4.8 | 6.4 | 0.00 | 0.00 | 0.00 | 69 | 1009.8 |
| 20260904073349 | 19 | 243 | 6.4 | 8.0 | 0.00 | 0.00 | 0.00 | 69 | 1009.8 |
| 20260904072844 | 19 | 296 | 4.8 | 6.4 | 0.00 | 0.00 | 0.00 | 69 | 1009.8 |
| 20260904072339 | 19 | 230 | 1.6 | 3.2 | 0.00 | 0.00 | 0.00 | 69 | 1009.8 |
| 20260904071834 | 20 | 262 | 3.2 | 3.2 | 0.00 | 0.00 | 0.00 | 68 | 1009.8 |
| 20260904071330 | 20 | 259 | 4.8 | 8.0 | 0.00 | 0.00 | 0.00 | 68 | 1009.8 |
| 20260904070825 | 20 | 243 | 4.8 | 6.4 | 0.00 | 0.00 | 0.00 | 68 | 1009.7 |
| 20260904070323 | 20 | 258 | 3.2 | 3.2 | 0.00 | 0.00 | 0.00 | 67 | 1009.9 |
| 20260904065818 | 20 | 250 | 4.8 | 6.4 | 0.00 | 0.00 | 0.00 | 67 | 1009.8 |
| 20260904065314 | 20 | 341 | 4.8 | 6.4 | 0.00 | 0.00 | 0.00 | 67 | 1010.0 |
| 20260904064809 | 20 | 280 | 4.8 | 6.4 | 0.00 | 0.00 | 0.00 | 66 | 1009.9 |
| 20260904064305 | 20 | 235 | 1.6 | 3.2 | 0.00 | 0.00 | 0.00 | 65 | 1009.8 |
| 20260904063801 | 20 | 243 | 4.8 | 6.4 | 0.00 | 0.00 | 0.00 | 65 | 1009.9 |
| 20260904063256 | 20 | 271 | 4.8 | 6.4 | 0.00 | 0.00 | 0.00 | 64 | 1009.7 |
| 20260904062752 | 20 | 249 | 4.8 | 6.4 | 0.00 | 0.00 | 0.00 | 64 | 1010.0 |
| 20260904062248 | 20 | 242 | 3.2 | 3.2 | 0.00 | 0.00 | 0.00 | 63 | 1009.7 |
| 20260904061743 | 20 | 245 | 6.4 | 8.0 | 0.00 | 0.00 | 0.00 | 63 | 1009.7 |
| 20260904061239 | 20 | 229 | 3.2 | 3.2 | 0.00 | 0.00 | 0.00 | 63 | 1009.7 |
| 20260904060736 | 20 | 263 | 3.2 | 3.2 | 0.00 | 0.00 | 0.00 | 62 | 1009.5 |
| 20260904060231 | 20 | 262 | 4.8 | 6.4 | 0.00 | 0.00 | 0.00 | 61 | 1009.4 |
| 20260904055726 | 20 | 295 | 4.8 | 6.4 | 0.00 | 0.00 | 0.00 | 61 | 1009.5 |
| 20260904055221 | 20 | 278 | 4.8 | 6.4 | 0.00 | 0.00 | 0.00 | 60 | 1009.4 |
| 20260904054717 | 20 | 262 | 1.6 | 1.6 | 0.00 | 0.00 | 0.00 | 60 | 1009.5 |
| 20260904054213 | 20 | 283 | 4.8 | 6.4 | 0.00 | 0.00 | 0.00 | 60 | 1009.4 |
| 20260904053708 | 21 | 27 | 0.0 | 0.0 | 0.00 | 0.00 | 0.00 | 58 | 1009.6 |
| 20260904053207 | 21 | 255 | 4.8 | 6.4 | 0.00 | 0.00 | 0.00 | 58 | 1009.4 |
| 20260904052704 | 21 | 244 | 4.8 | 6.4 | 0.00 | 0.00 | 0.00 | 57 | 1009.5 |
| 20260904052200 | 21 | 247 | 3.2 | 3.2 | 0.00 | 0.00 | 0.00 | 56 | 1009.6 |
| 20260904051656 | 21 | 247 | 3.2 | 3.2 | 0.00 | 0.00 | 0.00 | 55 | 1009.6 |
| 20260904051150 | 21 | 256 | 6.4 | 9.7 | 0.00 | 0.00 | 0.00 | 55 | 1009.6 |
| 20260904050646 | 21 | 258 | 6.4 | 8.0 | 0.00 | 0.00 | 0.00 | 54 | 1009.6 |
| 20260904050137 | 21 | 207 | 4.8 | 6.4 | 0.00 | 0.00 | 0.00 | 53 | 1009.5 |
| 20260904045636 | 22 | 296 | 9.7 | 11.3 | 0.00 | 0.00 | 0.00 | 52 | 1009.8 |
| 20260904045131 | 22 | 263 | 6.4 | 8.0 | 0.00 | 0.00 | 0.00 | 50 | 1009.7 |
| 20260904044626 | 22 | 262 | 8.0 | 11.3 | 0.00 | 0.00 | 0.00 | 50 | 1009.5 |
| 20260904044123 | 22 | 235 | 8.0 | 11.3 | 0.00 | 0.00 | 0.00 | 48 | 1009.4 |
| 20260904043619 | 22 | 253 | 9.7 | 12.9 | 0.00 | 0.00 | 0.00 | 48 | 1009.4 |
| 20260904043115 | 22 | 264 | 3.2 | 3.2 | 0.00 | 0.00 | 0.00 | 47 | 1009.3 |
| 20260904042611 | 22 | 234 | 4.8 | 6.4 | 0.00 | 0.00 | 0.00 | 46 | 1009.4 |
| 20260904042106 | 23 | 261 | 6.4 | 8.0 | 0.00 | 0.00 | 0.00 | 45 | 1009.2 |
| 20260904041601 | 23 | 250 | 3.2 | 3.2 | 0.00 | 0.00 | 0.00 | 43 | 1009.3 |
| 20260904041057 | 23 | 298 | 6.4 | 8.0 | 0.00 | 0.00 | 0.00 | 41 | 1009.2 |
| 20260904040557 | 23 | 276 | 3.2 | 3.2 | 0.00 | 0.00 | 0.00 | 43 | 1009.1 |
| 20260904040054 | 23 | 293 | 8.0 | 9.7 | 0.00 | 0.00 | 0.00 | 44 | 1009.0 |
| 20260904035549 | 23 | 241 | 4.8 | 6.4 | 0.00 | 0.00 | 0.00 | 48 | 1008.9 |
| 20260904035049 | 23 | 259 | 3.2 | 3.2 | 0.00 | 0.00 | 0.00 | 47 | 1009.1 |
| 20260904034543 | 23 | 242 | 1.6 | 1.6 | 0.00 | 0.00 | 0.00 | 47 | 1008.8 |
| 20260904034039 | 23 | 258 | 0.0 | 0.0 | 0.00 | 0.00 | 0.00 | 47 | 1009.0 |
| 20260904033535 | 23 | 264 | 1.6 | 3.2 | 0.00 | 0.00 | 0.00 | 47 | 1009.1 |
| 20260904033032 | 23 | 262 | 1.6 | 1.6 | 0.00 | 0.00 | 0.00 | 47 | 1008.7 |
| 20260904032528 | 24 | 271 | 0.0 | 0.0 | 0.00 | 0.00 | 0.00 | 47 | 1008.6 |
| 20260904032026 | 24 | 292 | 0.0 | 1.6 | 0.00 | 0.00 | 0.00 | 46 | 1008.4 |
| 20260904031521 | 24 | 307 | 0.0 | 0.0 | 0.00 | 0.00 | 0.00 | 45 | 1008.5 |
| 20260904031017 | 24 | 269 | 1.6 | 1.6 | 0.00 | 0.00 | 0.00 | 46 | 1008.5 |
| 20260904030513 | 24 | 313 | 0.0 | 0.0 | 0.00 | 0.00 | 0.00 | 47 | 1008.5 |
| 20260904030008 | 24 | 345 | 0.0 | 0.0 | 0.00 | 0.00 | 0.00 | 46 | 1008.5 |
| 20260904025504 | 25 | 294 | 0.0 | 0.0 | 0.00 | 0.00 | 0.00 | 45 | 1008.4 |
| 20260904025004 | 25 | 294 | 0.0 | 0.0 | 0.00 | 0.00 | 0.00 | 44 | 1008.4 |
| 20260904024459 | 25 | 294 | 0.0 | 0.0 | 0.00 | 0.00 | 0.00 | 45 | 1008.7 |
| 20260904023955 | 25 | 292 | 1.6 | 1.6 | 0.00 | 0.00 | 0.00 | 44 | 1008.8 |
| 20260904023451 | 26 | 273 | 3.2 | 3.2 | 0.00 | 0.00 | 0.00 | 44 | 1008.5 |
| 20260904022950 | 26 | 269 | 1.6 | 3.2 | 0.00 | 0.00 | 0.00 | 41 | 1008.7 |
| 20260904022446 | 26 | 355 | 0.0 | 1.6 | 0.00 | 0.00 | 0.00 | 42 | 1008.4 |
| 20260904021943 | 26 | 69 | 0.0 | 0.0 | 0.00 | 0.00 | 0.00 | 41 | 1008.6 |
| 20260904021439 | 27 | 69 | 0.0 | 0.0 | 0.00 | 0.00 | 0.00 | 40 | 1008.6 |
| 20260904020939 | 27 | 69 | 0.0 | 0.0 | 0.00 | 0.00 | 0.00 | 38 | 1008.7 |
| 20260904020434 | 27 | 354 | 0.0 | 0.0 | 0.00 | 0.00 | 0.00 | 37 | 1008.9 |
| 20260904015932 | 27 | 354 | 0.0 | 1.6 | 0.00 | 0.00 | 0.00 | 33 | 1008.9 |
| 20260904015428 | 28 | 60 | 0.0 | 0.0 | 0.00 | 0.00 | 0.00 | 36 | 1009.0 |
| 20260904014926 | 28 | 321 | 0.0 | 0.0 | 0.00 | 0.00 | 0.00 | 35 | 1008.8 |
| 20260904014422 | 28 | 132 | 1.6 | 1.6 | 0.00 | 0.00 | 0.00 | 31 | 1008.8 |
| 20260904013917 | 28 | 15 | 1.6 | 1.6 | 0.00 | 0.00 | 0.00 | 31 | 1009.0 |
| 20260904013413 | 29 | 280 | 0.0 | 0.0 | 0.00 | 0.00 | 0.00 | 31 | 1008.9 |
| 20260904012909 | 29 | 12 | 1.6 | 1.6 | 0.00 | 0.00 | 0.00 | 31 | 1009.0 |
| 20260904012409 | 30 | 24 | 0.0 | 0.0 | 0.00 | 0.00 | 0.00 | 29 | 1009.0 |
| 20260904011903 | 29 | 31 | 0.0 | 0.0 | 0.00 | 0.00 | 0.00 | 29 | 1008.7 |
| 20260904011358 | 30 | 19 | 0.0 | 0.0 | 0.00 | 0.00 | 0.00 | 29 | 1008.9 |
| 20260904010853 | 30 | 37 | 0.0 | 0.0 | 0.00 | 0.00 | 0.00 | 29 | 1009.0 |
| 20260904010350 | 30 | 55 | 0.0 | 1.6 | 0.00 | 0.00 | 0.00 | 29 | 1008.8 |
| 20260904005844 | 30 | 58 | 0.0 | 0.0 | 0.00 | 0.00 | 0.00 | 27 | 1009.0 |
| 20260904005340 | 30 | 81 | 0.0 | 1.6 | 0.00 | 0.00 | 0.00 | 28 | 1009.0 |
| 20260904004835 | 30 | 239 | 0.0 | 1.6 | 0.00 | 0.00 | 0.00 | 29 | 1009.0 |
| 20260904004332 | 30 | 339 | 1.6 | 1.6 | 0.00 | 0.00 | 0.00 | 28 | 1009.1 |
| 20260904003832 | 30 | 250 | 1.6 | 3.2 | 0.00 | 0.00 | 0.00 | 28 | 1009.1 |
| 20260904003328 | 30 | 291 | 3.2 | 3.2 | 0.00 | 0.00 | 0.00 | 28 | 1009.1 |
| 20260904002823 | 29 | 283 | 0.0 | 1.6 | 0.00 | 0.00 | 0.00 | 29 | 1009.2 |
| 20260904002319 | 30 | 275 | 4.8 | 6.4 | 0.00 | 0.00 | 0.00 | 29 | 1009.1 |
| 20260904001818 | 30 | 39 | 1.6 | 3.2 | 0.00 | 0.00 | 0.00 | 29 | 1009.2 |
| 20260904001313 | 30 | 259 | 6.4 | 8.0 | 0.00 | 0.00 | 0.00 | 30 | 1009.1 |
| 20260904000808 | 30 | 247 | 6.4 | 8.0 | 0.00 | 0.00 | 0.00 | 28 | 1009.1 |
| 20260904000307 | 30 | 276 | 1.6 | 1.6 | 0.00 | 0.00 | 0.00 | 28 | 1009.2 |
| 20260903235802 | 30 | 258 | 3.2 | 3.2 | 0.00 | 0.00 | 0.00 | 29 | 1009.3 |
| 20260903235259 | 30 | 273 | 6.4 | 8.0 | 0.00 | 0.00 | 0.00 | 29 | 1009.5 |
| 20260903234757 | 30 | 24 | 0.0 | 1.6 | 0.00 | 0.00 | 0.00 | 30 | 1009.5 |
| 20260903234254 | 30 | 22 | 1.6 | 1.6 | 0.00 | 0.00 | 0.00 | 30 | 1009.5 |
| 20260903233750 | 30 | 64 | 3.2 | 3.2 | 0.00 | 0.00 | 0.00 | 28 | 1009.7 |
| 20260903233246 | 30 | 9 | 1.6 | 1.6 | 0.00 | 0.00 | 0.00 | 29 | 1009.5 |
| 20260903232744 | 30 | 257 | 3.2 | 3.2 | 0.00 | 0.00 | 0.00 | 29 | 1009.7 |
| 20260903232241 | 30 | 274 | 4.8 | 6.4 | 0.00 | 0.00 | 0.00 | 29 | 1009.7 |
| 20260903231739 | 29 | 58 | 0.0 | 0.0 | 0.00 | 0.00 | 0.00 | 29 | 1009.7 |
| 20260903231235 | 29 | 314 | 3.2 | 6.4 | 0.00 | 0.00 | 0.00 | 30 | 1010.0 |
| 20260903230730 | 30 | 0 | 1.6 | 1.6 | 0.00 | 0.00 | 0.00 | 29 | 1009.8 |
| 20260903230225 | 30 | 254 | 3.2 | 3.2 | 0.00 | 0.00 | 0.00 | 29 | 1010.0 |
| 20260903225722 | 30 | 228 | 1.6 | 3.2 | 0.00 | 0.00 | 0.00 | 30 | 1010.0 |
| 20260903225218 | 30 | 310 | 1.6 | 1.6 | 0.00 | 0.00 | 0.00 | 29 | 1010.1 |
| 20260903224714 | 30 | 245 | 4.8 | 6.4 | 0.00 | 0.00 | 0.00 | 29 | 1010.2 |
| 20260903224210 | 29 | 264 | 3.2 | 3.2 | 0.00 | 0.00 | 0.00 | 30 | 1010.1 |
| 20260903223704 | 30 | 293 | 4.8 | 6.4 | 0.00 | 0.00 | 0.00 | 31 | 1010.5 |
| 20260903223203 | 30 | 313 | 3.2 | 3.2 | 0.00 | 0.00 | 0.00 | 29 | 1010.2 |
| 20260903222703 | 30 | 330 | 1.6 | 3.2 | 0.00 | 0.00 | 0.00 | 29 | 1010.4 |
| 20260903222202 | 29 | 322 | 0.0 | 1.6 | 0.00 | 0.00 | 0.00 | 31 | 1010.5 |
| 20260903221657 | 29 | 262 | 4.8 | 6.4 | 0.00 | 0.00 | 0.00 | 31 | 1010.6 |
| 20260903221156 | 29 | 80 | 1.6 | 1.6 | 0.00 | 0.00 | 0.00 | 30 | 1010.8 |
| 20260903220655 | 28 | 156 | 1.6 | 1.6 | 0.00 | 0.00 | 0.00 | 32 | 1010.5 |
| 20260903220149 | 28 | 264 | 6.4 | 8.0 | 0.00 | 0.00 | 0.00 | 30 | 1011.1 |
| 20260903215648 | 28 | 211 | 6.4 | 8.0 | 0.00 | 0.00 | 0.00 | 32 | 1011.1 |
| 20260903215144 | 28 | 277 | 6.4 | 9.7 | 0.00 | 0.00 | 0.00 | 31 | 1011.1 |
| 20260903214642 | 28 | 251 | 3.2 | 3.2 | 0.00 | 0.00 | 0.00 | 32 | 1011.0 |
| 20260903214138 | 28 | 241 | 4.8 | 8.0 | 0.00 | 0.00 | 0.00 | 31 | 1011.2 |
| 20260903213632 | 28 | 288 | 6.4 | 8.0 | 0.00 | 0.00 | 0.00 | 32 | 1011.4 |
| 20260903213129 | 29 | 60 | 3.2 | 3.2 | 0.00 | 0.00 | 0.00 | 30 | 1011.1 |
| 20260903212624 | 29 | 89 | 1.6 | 1.6 | 0.00 | 0.00 | 0.00 | 30 | 1011.4 |
| 20260903212119 | 28 | 318 | 1.6 | 3.2 | 0.00 | 0.00 | 0.00 | 32 | 1011.2 |
| 20260903211609 | 28 | 228 | 4.8 | 8.0 | 0.00 | 0.00 | 0.00 | 33 | 1011.1 |
| 20260903211106 | 28 | 79 | 1.6 | 3.2 | 0.00 | 0.00 | 0.00 | 33 | 1011.4 |
| 20260903210601 | 28 | 30 | 3.2 | 3.2 | 0.00 | 0.00 | 0.00 | 35 | 1011.5 |
| 20260903210056 | 27 | 84 | 0.0 | 1.6 | 0.00 | 0.00 | 0.00 | 34 | 1011.6 |
| 20260903205555 | 28 | 29 | 4.8 | 6.4 | 0.00 | 0.00 | 0.00 | 33 | 1011.6 |
| 20260903205050 | 28 | 12 | 1.6 | 3.2 | 0.00 | 0.00 | 0.00 | 33 | 1011.6 |
| 20260903204546 | 27 | 331 | 1.6 | 3.2 | 0.00 | 0.00 | 0.00 | 36 | 1011.8 |
| 20260903204041 | 27 | 91 | 1.6 | 1.6 | 0.00 | 0.00 | 0.00 | 34 | 1011.9 |
| 20260903203537 | 26 | 265 | 3.2 | 3.2 | 0.00 | 0.00 | 0.00 | 36 | 1011.7 |
| 20260903203036 | 26 | 221 | 3.2 | 6.4 | 0.00 | 0.00 | 0.00 | 36 | 1012.0 |
| 20260903202532 | 26 | 293 | 11.3 | 14.5 | 0.00 | 0.00 | 0.00 | 38 | 1011.7 |
| 20260903202027 | 27 | 259 | 6.4 | 8.0 | 0.00 | 0.00 | 0.00 | 36 | 1012.1 |
| 20260903201522 | 27 | 306 | 1.6 | 1.6 | 0.00 | 0.00 | 0.00 | 36 | 1011.9 |
| 20260903201021 | 27 | 217 | 1.6 | 1.6 | 0.00 | 0.00 | 0.00 | 38 | 1011.9 |
| 20260903200516 | 27 | 25 | 4.8 | 6.4 | 0.00 | 0.00 | 0.00 | 36 | 1012.0 |
| 20260903200011 | 27 | 43 | 0.0 | 1.6 | 0.00 | 0.00 | 0.00 | 36 | 1012.3 |
| 20260903195507 | 26 | 16 | 1.6 | 3.2 | 0.00 | 0.00 | 0.00 | 37 | 1012.3 |
| 20260903195003 | 26 | 9 | 1.6 | 3.2 | 0.00 | 0.00 | 0.00 | 38 | 1012.5 |
| 20260903194457 | 26 | 286 | 0.0 | 1.6 | 0.00 | 0.00 | 0.00 | 38 | 1012.7 |
| 20260903193953 | 25 | 260 | 4.8 | 6.4 | 0.00 | 0.00 | 0.00 | 39 | 1012.8 |
| 20260903193449 | 26 | 231 | 4.8 | 6.4 | 0.00 | 0.00 | 0.00 | 39 | 1012.8 |
| 20260903192943 | 25 | 351 | 1.6 | 1.6 | 0.00 | 0.00 | 0.00 | 38 | 1012.7 |
| 20260903192441 | 25 | 245 | 4.8 | 6.4 | 0.00 | 0.00 | 0.00 | 40 | 1012.8 |
| 20260903191935 | 25 | 237 | 1.6 | 3.2 | 0.00 | 0.00 | 0.00 | 39 | 1012.8 |
| 20260903191432 | 25 | 32 | 3.2 | 3.2 | 0.00 | 0.00 | 0.00 | 39 | 1012.6 |
| 20260903190931 | 25 | 290 | 1.6 | 1.6 | 0.00 | 0.00 | 0.00 | 40 | 1012.7 |
| 20260903190431 | 24 | 269 | 4.8 | 8.0 | 0.00 | 0.00 | 0.00 | 42 | 1012.9 |
| 20260903185925 | 25 | 273 | 3.2 | 3.2 | 0.00 | 0.00 | 0.00 | 40 | 1013.1 |
| 20260903185421 | 25 | 65 | 0.0 | 1.6 | 0.00 | 0.00 | 0.00 | 40 | 1013.3 |
| 20260903184916 | 25 | 172 | 3.2 | 6.4 | 0.00 | 0.00 | 0.00 | 40 | 1013.3 |
| 20260903184413 | 24 | 81 | 1.6 | 1.6 | 0.00 | 0.00 | 0.00 | 40 | 1013.4 |
| 20260903183912 | 25 | 135 | 1.6 | 1.6 | 0.00 | 0.00 | 0.00 | 42 | 1013.6 |
| 20260903183407 | 23 | 14 | 3.2 | 3.2 | 0.00 | 0.00 | 0.00 | 43 | 1013.6 |
| 20260903182907 | 23 | 258 | 4.8 | 6.4 | 0.00 | 0.00 | 0.00 | 41 | 1013.8 |
| 20260903182405 | 23 | 43 | 1.6 | 1.6 | 0.00 | 0.00 | 0.00 | 42 | 1013.9 |
| 20260903181900 | 23 | 249 | 3.2 | 3.2 | 0.00 | 0.00 | 0.00 | 42 | 1013.8 |
| 20260903181355 | 23 | 290 | 6.4 | 8.0 | 0.00 | 0.00 | 0.00 | 42 | 1013.9 |
| 20260903180855 | 23 | 243 | 4.8 | 6.4 | 0.00 | 0.00 | 0.00 | 44 | 1013.7 |
| 20260903180349 | 23 | 311 | 4.8 | 6.4 | 0.00 | 0.00 | 0.00 | 44 | 1013.8 |
| 20260903175849 | 22 | 243 | 3.2 | 3.2 | 0.00 | 0.00 | 0.00 | 45 | 1013.7 |
| 20260903175343 | 22 | 264 | 3.2 | 3.2 | 0.00 | 0.00 | 0.00 | 46 | 1013.9 |
| 20260903174837 | 22 | 275 | 3.2 | 3.2 | 0.00 | 0.00 | 0.00 | 46 | 1013.7 |
| 20260903174332 | 22 | 231 | 1.6 | 1.6 | 0.00 | 0.00 | 0.00 | 47 | 1013.7 |
| 20260903173827 | 22 | 243 | 3.2 | 6.4 | 0.00 | 0.00 | 0.00 | 47 | 1013.8 |
| 20260903173322 | 22 | 274 | 3.2 | 3.2 | 0.00 | 0.00 | 0.00 | 45 | 1013.9 |
| 20260903172818 | 22 | 238 | 1.6 | 3.2 | 0.00 | 0.00 | 0.00 | 47 | 1013.8 |
| 20260903172313 | 22 | 249 | 6.4 | 8.0 | 0.00 | 0.00 | 0.00 | 47 | 1014.0 |
| 20260903171808 | 21 | 276 | 3.2 | 3.2 | 0.00 | 0.00 | 0.00 | 49 | 1013.8 |
| 20260903171304 | 21 | 297 | 8.0 | 8.0 | 0.00 | 0.00 | 0.00 | 49 | 1014.0 |
| 20260903170803 | 21 | 262 | 4.8 | 6.4 | 0.00 | 0.00 | 0.00 | 49 | 1014.0 |
| 20260903170258 | 21 | 30 | 0.0 | 1.6 | 0.00 | 0.00 | 0.00 | 50 | 1014.0 |
| 20260903165756 | 21 | 248 | 6.4 | 8.0 | 0.00 | 0.00 | 0.00 | 52 | 1014.0 |
| 20260903165251 | 20 | 38 | 0.0 | 1.6 | 0.00 | 0.00 | 0.00 | 52 | 1014.0 |
| 20260903164745 | 20 | 251 | 4.8 | 6.4 | 0.00 | 0.00 | 0.00 | 53 | 1014.3 |
| 20260903164241 | 20 | 219 | 1.6 | 1.6 | 0.00 | 0.00 | 0.00 | 55 | 1014.2 |
| 20260903163740 | 20 | 212 | 1.6 | 1.6 | 0.00 | 0.00 | 0.00 | 55 | 1014.3 |
| 20260903163237 | 20 | 281 | 4.8 | 6.4 | 0.00 | 0.00 | 0.00 | 56 | 1014.2 |
| 20260903162733 | 19 | 239 | 4.8 | 8.0 | 0.00 | 0.00 | 0.00 | 56 | 1014.3 |
| 20260903162229 | 19 | 161 | 1.6 | 1.6 | 0.00 | 0.00 | 0.00 | 56 | 1014.4 |
| 20260903161724 | 18 | 293 | 1.6 | 3.2 | 0.00 | 0.00 | 0.00 | 59 | 1014.2 |
| 20260903161220 | 18 | 264 | 3.2 | 3.2 | 0.00 | 0.00 | 0.00 | 59 | 1014.3 |
| 20260903160715 | 18 | 241 | 8.0 | 9.7 | 0.00 | 0.00 | 0.00 | 58 | 1014.4 |
| 20260903160214 | 18 | 14 | 0.0 | 1.6 | 0.00 | 0.00 | 0.00 | 61 | 1014.3 |
| 20260903155713 | 18 | 275 | 4.8 | 6.4 | 0.00 | 0.00 | 0.00 | 61 | 1014.1 |
| 20260903155208 | 18 | 192 | 3.2 | 3.2 | 0.00 | 0.00 | 0.00 | 62 | 1014.3 |
| 20260903154704 | 17 | 275 | 3.2 | 3.2 | 0.00 | 0.00 | 0.00 | 63 | 1014.1 |
| 20260903154200 | 17 | 231 | 1.6 | 1.6 | 0.00 | 0.00 | 0.00 | 63 | 1014.4 |
| 20260903153655 | 17 | 276 | 3.2 | 3.2 | 0.00 | 0.00 | 0.00 | 65 | 1014.2 |
| 20260903153151 | 17 | 252 | 4.8 | 6.4 | 0.00 | 0.00 | 0.00 | 66 | 1014.3 |
| 20260903152647 | 17 | 251 | 3.2 | 3.2 | 0.00 | 0.00 | 0.00 | 66 | 1014.3 |
| 20260903152143 | 16 | 269 | 3.2 | 3.2 | 0.00 | 0.00 | 0.00 | 67 | 1014.4 |
| 20260903151643 | 16 | 269 | 1.6 | 1.6 | 0.00 | 0.00 | 0.00 | 69 | 1014.2 |
| 20260903151142 | 16 | 349 | 1.6 | 1.6 | 0.00 | 0.00 | 0.00 | 69 | 1014.5 |
| 20260903150637 | 16 | 105 | 0.0 | 0.0 | 0.00 | 0.00 | 0.00 | 71 | 1014.5 |
| 20260903150133 | 16 | 248 | 8.0 | 9.7 | 0.00 | 0.00 | 0.00 | 71 | 1014.5 |
| 20260903145632 | 15 | 265 | 3.2 | 3.2 | 0.00 | 0.00 | 0.00 | 73 | 1014.1 |
| 20260903145127 | 15 | 187 | 0.0 | 0.0 | 0.00 | 0.00 | 0.00 | 73 | 1014.3 |
| 20260903144625 | 15 | 260 | 3.2 | 3.2 | 0.00 | 0.00 | 0.00 | 74 | 1014.2 |
| 20260903144122 | 15 | 244 | 6.4 | 9.7 | 0.00 | 0.00 | 0.00 | 74 | 1014.2 |
| 20260903143618 | 15 | 280 | 1.6 | 1.6 | 0.00 | 0.00 | 0.00 | 74 | 1014.2 |
| 20260903143114 | 15 | 309 | 0.0 | 1.6 | 0.00 | 0.00 | 0.00 | 75 | 1014.0 |
| 20260903142609 | 15 | 262 | 4.8 | 9.7 | 0.00 | 0.00 | 0.00 | 76 | 1014.3 |
| 20260903142106 | 14 | 305 | 3.2 | 3.2 | 0.00 | 0.00 | 0.00 | 76 | 1014.1 |
| 20260903141601 | 14 | 241 | 4.8 | 6.4 | 0.00 | 0.00 | 0.00 | 76 | 1013.8 |
| 20260903141056 | 14 | 290 | 3.2 | 3.2 | 0.00 | 0.00 | 0.00 | 76 | 1013.9 |
| 20260903140552 | 14 | 269 | 3.2 | 3.2 | 0.00 | 0.00 | 0.00 | 76 | 1013.9 |
| 20260903140047 | 14 | 288 | 3.2 | 3.2 | 0.00 | 0.00 | 0.00 | 75 | 1014.0 |
| 20260903135542 | 14 | 269 | 3.2 | 6.4 | 0.00 | 0.00 | 0.00 | 75 | 1013.7 |
| 20260903135037 | 14 | 288 | 1.6 | 1.6 | 0.00 | 0.00 | 0.00 | 75 | 1014.0 |
| 20260903134536 | 14 | 296 | 4.8 | 6.4 | 0.00 | 0.00 | 0.00 | 75 | 1013.7 |
| 20260903134033 | 14 | 330 | 0.0 | 1.6 | 0.00 | 0.00 | 0.00 | 75 | 1013.7 |
| 20260903133530 | 14 | 287 | 0.0 | 1.6 | 0.00 | 0.00 | 0.00 | 75 | 1013.6 |
| 20260903133025 | 14 | 269 | 1.6 | 1.6 | 0.00 | 0.00 | 0.00 | 75 | 1013.6 |
| 20260903132520 | 14 | 304 | 1.6 | 3.2 | 0.00 | 0.00 | 0.00 | 74 | 1013.7 |
| 20260903132015 | 14 | 244 | 6.4 | 8.0 | 0.00 | 0.00 | 0.00 | 74 | 1013.6 |
| 20260903131510 | 15 | 274 | 3.2 | 3.2 | 0.00 | 0.00 | 0.00 | 74 | 1013.7 |
| 20260903131009 | 15 | 273 | 1.6 | 1.6 | 0.00 | 0.00 | 0.00 | 74 | 1013.7 |
| 20260903130504 | 15 | 233 | 3.2 | 3.2 | 0.00 | 0.00 | 0.00 | 73 | 1013.4 |
| 20260903130003 | 15 | 258 | 3.2 | 3.2 | 0.00 | 0.00 | 0.00 | 73 | 1013.4 |
| 20260903125502 | 15 | 287 | 1.6 | 3.2 | 0.00 | 0.00 | 0.00 | 72 | 1013.5 |
| 20260903124957 | 15 | 252 | 3.2 | 3.2 | 0.00 | 0.00 | 0.00 | 72 | 1013.5 |
| 20260903124451 | 15 | 249 | 4.8 | 8.0 | 0.00 | 0.00 | 0.00 | 70 | 1013.5 |
| 20260903123945 | 15 | 279 | 4.8 | 6.4 | 0.00 | 0.00 | 0.00 | 69 | 1013.5 |
| 20260903123440 | 15 | 246 | 4.8 | 6.4 | 0.00 | 0.00 | 0.00 | 69 | 1013.5 |
| 20260903122939 | 15 | 261 | 3.2 | 6.4 | 0.00 | 0.00 | 0.00 | 69 | 1013.6 |
| 20260903122439 | 15 | 313 | 4.8 | 6.4 | 0.00 | 0.00 | 0.00 | 68 | 1013.7 |
| 20260903121938 | 15 | 269 | 3.2 | 6.4 | 0.00 | 0.00 | 0.00 | 68 | 1013.5 |
| 20260903121433 | 16 | 268 | 1.6 | 1.6 | 0.00 | 0.00 | 0.00 | 68 | 1013.5 |
| 20260903120929 | 16 | 246 | 3.2 | 3.2 | 0.00 | 0.00 | 0.00 | 67 | 1013.5 |
| 20260903120427 | 16 | 248 | 1.6 | 1.6 | 0.00 | 0.00 | 0.00 | 67 | 1013.5 |
| 20260903115926 | 16 | 228 | 3.2 | 3.2 | 0.00 | 0.00 | 0.00 | 67 | 1013.6 |
| 20260903115420 | 16 | 255 | 1.6 | 1.6 | 0.00 | 0.00 | 0.00 | 67 | 1013.6 |
| 20260903114915 | 16 | 254 | 3.2 | 3.2 | 0.00 | 0.00 | 0.00 | 66 | 1013.5 |
| 20260903114411 | 16 | 232 | 1.6 | 3.2 | 0.00 | 0.00 | 0.00 | 66 | 1013.7 |
| 20260903113906 | 16 | 230 | 1.6 | 3.2 | 0.00 | 0.00 | 0.00 | 66 | 1013.6 |
| 20260903113402 | 16 | 243 | 3.2 | 3.2 | 0.00 | 0.00 | 0.00 | 65 | 1013.6 |
| 20260903112857 | 16 | 262 | 4.8 | 6.4 | 0.00 | 0.00 | 0.00 | 65 | 1013.7 |
| 20260903112353 | 16 | 117 | 3.2 | 6.4 | 0.00 | 0.00 | 0.00 | 66 | 1013.6 |
| 20260903111852 | 16 | 267 | 3.2 | 3.2 | 0.00 | 0.00 | 0.00 | 66 | 1013.8 |
| 20260903111351 | 16 | 248 | 4.8 | 6.4 | 0.00 | 0.00 | 0.00 | 66 | 1013.7 |
| 20260903110848 | 16 | 221 | 9.7 | 12.9 | 0.00 | 0.00 | 0.00 | 66 | 1013.8 |
| 20260903110343 | 16 | 264 | 6.4 | 8.0 | 0.00 | 0.00 | 0.00 | 67 | 1013.7 |
| 20260903105838 | 16 | 247 | 4.8 | 6.4 | 0.00 | 0.00 | 0.00 | 67 | 1013.7 |
| 20260903105333 | 16 | 9 | 4.8 | 6.4 | 0.00 | 0.00 | 0.00 | 68 | 1013.5 |
| 20260903104833 | 16 | 275 | 4.8 | 6.4 | 0.00 | 0.00 | 0.00 | 68 | 1013.8 |
| 20260903104327 | 16 | 244 | 4.8 | 6.4 | 0.00 | 0.00 | 0.00 | 69 | 1013.9 |
| 20260903103824 | 16 | 263 | 3.2 | 3.2 | 0.00 | 0.00 | 0.00 | 69 | 1013.7 |
| 20260903103320 | 16 | 253 | 3.2 | 3.2 | 0.00 | 0.00 | 0.00 | 69 | 1013.7 |
| 20260903102815 | 16 | 276 | 8.0 | 9.7 | 0.00 | 0.00 | 0.00 | 69 | 1013.8 |
| 20260903102310 | 16 | 257 | 3.2 | 3.2 | 0.00 | 0.00 | 0.00 | 69 | 1013.8 |
| 20260903101809 | 16 | 260 | 3.2 | 6.4 | 0.00 | 0.00 | 0.00 | 69 | 1013.7 |
| 20260903101304 | 16 | 263 | 1.6 | 3.2 | 0.00 | 0.00 | 0.00 | 68 | 1013.6 |
| 20260903100800 | 17 | 243 | 4.8 | 6.4 | 0.00 | 0.00 | 0.00 | 68 | 1013.9 |
| 20260903100254 | 17 | 195 | 3.2 | 3.2 | 0.00 | 0.00 | 0.00 | 67 | 1013.8 |
| 20260903095751 | 17 | 262 | 4.8 | 8.0 | 0.00 | 0.00 | 0.00 | 67 | 1013.8 |
| 20260903095246 | 17 | 238 | 3.2 | 3.2 | 0.00 | 0.00 | 0.00 | 67 | 1013.6 |
| 20260903094741 | 17 | 258 | 3.2 | 3.2 | 0.00 | 0.00 | 0.00 | 66 | 1013.6 |
| 20260903094236 | 17 | 253 | 6.4 | 8.0 | 0.00 | 0.00 | 0.00 | 65 | 1013.6 |
| 20260903093731 | 17 | 275 | 3.2 | 3.2 | 0.00 | 0.00 | 0.00 | 66 | 1013.9 |
| 20260903093227 | 17 | 119 | 1.6 | 1.6 | 0.00 | 0.00 | 0.00 | 65 | 1013.8 |
| 20260903092726 | 17 | 247 | 1.6 | 6.4 | 0.00 | 0.00 | 0.00 | 65 | 1013.7 |
| 20260903092221 | 17 | 276 | 4.8 | 6.4 | 0.00 | 0.00 | 0.00 | 65 | 1013.9 |
| 20260903091720 | 17 | 275 | 4.8 | 6.4 | 0.00 | 0.00 | 0.00 | 65 | 1013.8 |